Weather in Mora

United States     45°52′31″N   93°17′48″W
temp.,
°C
wind,
m/s
gust,
m/s
humid.,
%
clouds,
%
prec.,
mm/h
press.,
hPa
HPBL,
m
18 may, tue
tue1801:00+13sse35890 0.0 102077
04:00+12se38940 0.0 1020147
07:00+13se37953 0.0 1020193
10:00+19se57687 0.0 1019934
13:00+22sse795744 0.1 10181708
16:00+21sse8107157 1.2 10161304
19:00+19sse597840 1.9 10151070
22:00+16se51092100 0.3 1015567
19 may, wed
wed1901:00+15se4998100 0.6 1014596
04:00+15sse3898100 0.1 1014517
07:00+15sse3798100 0.1 1015410
10:00+17s4794100 0.1 1015492
13:00+20s4680100 0.4 1015884
16:00+22ssw4671100 0.2 10141119
19:00+19sse3687100 0.3 1014301
22:00+17s3996100 1.3 1015309
20 may, thu
thu2001:00+16ese3999100 2.3 1014401
04:00+17sse61298100 5.4 1012738
07:00+16s51298100 7.8 1012628
10:00+17ssw61195100 0.2 1013793
13:00+19ssw5989100 0.3 10141076
16:00+22ssw6880100 0.6 1014979
19:00+21ssw51089100 2.3 1015623
22:00+19sw41192100 2.9 1016336
21 may, fri
fri2101:00+17ssw2597100 5.9 1018134
04:00+16e2399100 5.1 1017127
07:00+16sse3699100 11.7 1018376
10:00+17sse1297100 0.5 1019274
13:00+22w237648 0.9 1019879
16:00+24ssw126397 0.1 10191353
19:00+22s2281100 0.1 101952
22:00+20ese348292 0.0 102069
22 may, sat
sat2201:00+17ene3794100 0.1 1021193
04:00+16ene3795100 0.2 1021184
07:00+16e3797100 0.3 1021165
10:00+22s5886100 0.0 1018653
13:00+26sw586968 0.1 10171343
16:00+25sw41078100 0.1 1016565
19:00+25wsw388040 1.0 1015494
22:00+20w3897100 6.5 1016181